KD2RHT-13 Weather Reports


time (UTC)temp
C
wind
direction
speed
KPH
gust
KPH
rain 1hr
cm
rain 24hr
cm
rain mn
cm
humidity
%
barometer
mb
20260509162306 12 149 0.0 0.0 0.00 0.00 0.00 85 1009.7
20260509161759 12 101 1.6 1.6 0.00 0.00 0.00 85 1009.7
20260509161255 11 146 0.0 0.0 0.00 0.00 0.00 85 1010.0
20260509160751 11 147 3.2 4.8 0.00 0.00 0.00 85 1010.0
20260509160247 11 94 4.8 4.8 0.00 0.00 0.00 85 1010.0
20260509155742 11 154 0.0 0.0 0.00 0.00 0.00 85 1010.0
20260509155239 12 163 0.0 0.0 0.00 0.00 0.00 85 1010.0
20260509154735 12 174 3.2 4.8 0.00 0.00 0.00 84 1010.0
20260509154232 12 172 0.0 0.0 0.00 0.00 0.00 83 1010.0
20260509153730 12 157 0.0 0.0 0.00 0.00 0.00 82 1010.0
20260509153225 13 160 1.6 1.6 0.00 0.00 0.00 81 1010.4
20260509152722 13 117 0.0 1.6 0.00 0.00 0.00 81 1010.4
20260509152219 13 211 0.0 0.0 0.00 0.00 0.00 81 1010.4
20260509151715 13 157 0.0 0.0 0.00 0.00 0.00 82 1010.4
20260509151212 12 61 1.6 4.8 0.00 0.00 0.00 83 1010.4
20260509150710 12 165 0.0 0.0 0.00 0.00 0.00 82 1010.4
20260509150208 12 156 1.6 3.2 0.00 0.00 0.00 82 1010.4
20260509145704 12 162 0.0 0.0 0.00 0.00 0.00 82 1010.4
20260509145159 12 161 0.0 0.0 0.00 0.00 0.00 82 1010.4
20260509144656 12 158 0.0 0.0 0.00 0.00 0.00 81 1010.7
20260509144154 12 173 1.6 1.6 0.00 0.00 0.00 81 1010.4
20260509143651 12 166 1.6 1.6 0.00 0.00 0.00 83 1010.7
20260509143148 12 149 1.6 1.6 0.00 0.00 0.00 82 1010.4
20260509142644 12 153 0.0 0.0 0.00 0.00 0.00 84 1010.7
20260509142141 12 158 0.0 1.6 0.00 0.00 0.00 82 1010.7
20260509141636 11 152 0.0 0.0 0.00 0.00 0.00 83 1010.7
20260509141133 11 166 0.0 0.0 0.00 0.00 0.00 83 1010.7
20260509140630 11 188 0.0 0.0 0.00 0.00 0.00 84 1010.7
20260509140128 11 152 0.0 0.0 0.00 0.00 0.00 83 1010.7
20260509135625 11 183 3.2 3.2 0.00 0.00 0.00 83 1010.7
20260509135123 10 127 0.0 1.6 0.00 0.00 0.00 84 1010.7
20260509134619 10 163 0.0 0.0 0.00 0.00 0.00 84 1010.7
20260509134117 10 160 0.0 0.0 0.00 0.00 0.00 84 1010.7
20260509133614 10 135 0.0 0.0 0.00 0.00 0.00 84 1010.7
20260509133111 10 162 0.0 0.0 0.00 0.00 0.00 84 1011.1
20260509132609 10 82 3.2 3.2 0.00 0.00 0.00 85 1011.4
20260509132107 10 191 1.6 3.2 0.00 0.00 0.00 85 1011.1
20260509131602 9 160 0.0 0.0 0.00 0.00 0.00 85 1011.4
20260509131100 8 153 0.0 1.6 0.00 0.00 0.00 85 1011.1
20260509130555 8 351 0.0 0.0 0.00 0.00 0.00 86 1011.4
20260509130053 8 159 0.0 1.6 0.00 0.00 0.00 86 1011.4
20260509125549 8 148 1.6 3.2 0.00 0.00 0.00 86 1011.1
20260509125046 8 149 0.0 1.6 0.00 0.00 0.00 86 1011.4
20260509124542 8 159 0.0 0.0 0.00 0.00 0.00 87 1011.1
20260509124040 8 164 0.0 0.0 0.00 0.00 0.00 87 1011.1
20260509123537 8 157 0.0 0.0 0.00 0.00 0.00 87 1011.1
20260509123033 8 104 1.6 3.2 0.00 0.00 0.00 86 1011.1
20260509122530 7 168 0.0 0.0 0.00 0.00 0.00 87 1011.1
20260509122027 7 137 0.0 0.0 0.00 0.00 0.00 87 1011.4
20260509121523 7 155 0.0 0.0 0.00 0.00 0.00 87 1011.4
20260509121021 7 157 0.0 0.0 0.00 0.00 0.00 87 1011.1
20260509120519 7 156 0.0 0.0 0.00 0.00 0.00 88 1011.4
20260509120012 7 96 0.0 1.6 0.00 0.00 0.00 88 1011.4
20260509115508 7 157 0.0 0.0 0.00 0.00 0.00 88 1011.1
20260509115006 7 131 0.0 1.6 0.00 0.00 0.00 88 1011.4
20260509114504 6 155 0.0 0.0 0.00 0.00 0.00 88 1011.4
20260509114003 6 165 0.0 0.0 0.00 0.00 0.00 88 1011.4
20260509113500 6 162 0.0 0.0 0.00 0.00 0.00 88 1011.1
20260509112957 6 169 1.6 1.6 0.00 0.00 0.00 88 1011.4
20260509112454 6 164 1.6 1.6 0.00 0.00 0.00 88 1011.4
20260509111950 6 167 1.6 3.2 0.00 0.00 0.00 90 1011.4
20260509111449 6 130 0.0 0.0 0.00 0.00 0.00 90 1011.4
20260509110946 6 226 0.0 1.6 0.00 0.00 0.00 91 1011.7
20260509110442 6 177 0.0 0.0 0.00 0.00 0.00 91 1011.4
20260509105940 6 155 0.0 0.0 0.00 0.00 0.00 91 1011.7
20260509105438 5 162 0.0 0.0 0.00 0.00 0.00 92 1011.4
20260509104935 5 159 0.0 0.0 0.00 0.00 0.00 92 1011.4
20260509104432 5 145 0.0 0.0 0.00 0.00 0.00 93 1011.4
20260509103928 5 158 0.0 0.0 0.00 0.00 0.00 93 1011.4
20260509103426 5 158 0.0 0.0 0.00 0.00 0.00 93 1011.4
20260509102925 5 157 0.0 0.0 0.00 0.00 0.00 93 1011.4
20260509102422 5 192 0.0 0.0 0.00 0.00 0.00 93 1011.4
20260509101917 5 159 0.0 0.0 0.00 0.00 0.00 94 1011.4
20260509101413 5 159 0.0 0.0 0.00 0.00 0.00 93 1011.4
20260509100911 5 158 0.0 0.0 0.00 0.00 0.00 93 1011.4
20260509100409 4 154 0.0 0.0 0.00 0.00 0.00 94 1011.4
20260509095905 4 157 0.0 0.0 0.00 0.00 0.00 94 1011.4
20260509095402 4 163 0.0 0.0 0.00 0.00 0.00 94 1011.4
20260509094859 4 155 0.0 0.0 0.00 0.00 0.00 94 1011.1
20260509094356 4 168 0.0 0.0 0.00 0.00 0.00 95 1011.4
20260509093854 3 153 0.0 0.0 0.00 0.00 0.00 95 1011.1
20260509093350 3 154 0.0 0.0 0.00 0.00 0.00 95 1011.1
20260509092849 3 158 0.0 0.0 0.00 0.00 0.00 95 1011.1
20260509092346 4 155 0.0 0.0 0.00 0.00 0.00 95 1011.4
20260509091845 3 160 0.0 0.0 0.00 0.00 0.00 95 1011.1
20260509091341 3 167 0.0 0.0 0.00 0.00 0.00 96 1011.4
20260509090838 3 156 0.0 0.0 0.00 0.00 0.00 96 1011.4
20260509090336 3 150 0.0 0.0 0.00 0.00 0.00 97 1011.4
20260509085833 3 158 0.0 0.0 0.00 0.00 0.00 97 1011.4
20260509085330 3 151 0.0 0.0 0.00 0.00 0.00 98 1011.7
20260509084826 3 155 0.0 0.0 0.00 0.00 0.00 98 1011.7
20260509084323 3 158 0.0 0.0 0.00 0.00 0.00 98 1011.7
20260509083821 3 154 0.0 0.0 0.00 0.00 0.00 98 1011.7
20260509083318 3 153 0.0 0.0 0.00 0.00 0.00 98 1011.4
20260509082814 3 153 0.0 0.0 0.00 0.00 0.00 98 1011.7
20260509082311 3 152 0.0 0.0 0.00 0.00 0.00 99 1011.7
20260509081809 3 154 0.0 0.0 0.00 0.00 0.00 99 1011.7
20260509081305 3 158 0.0 0.0 0.00 0.00 0.00 98 1011.7
20260509080803 3 155 0.0 0.0 0.00 0.00 0.00 98 1012.1
20260509080301 3 158 0.0 0.0 0.00 0.00 0.00 98 1012.1
20260509075759 3 154 0.0 0.0 0.00 0.00 0.00 98 1012.1
20260509075256 2 157 0.0 0.0 0.00 0.00 0.00 98 1011.7
20260509074753 3 155 0.0 0.0 0.00 0.00 0.00 98 1012.1
20260509074251 2 155 0.0 0.0 0.00 0.00 0.00 97 1012.1
20260509073747 2 155 0.0 0.0 0.00 0.00 0.00 97 1012.1
20260509073243 2 155 0.0 0.0 0.00 0.00 0.00 97 1012.1
20260509072739 3 156 0.0 0.0 0.00 0.00 0.00 97 1012.1
20260509072236 3 152 0.0 0.0 0.00 0.00 0.00 96 1012.1
20260509071733 3 150 0.0 0.0 0.00 0.00 0.00 96 1012.1
20260509071231 3 156 0.0 0.0 0.00 0.00 0.00 96 1012.1
20260509070727 3 160 0.0 0.0 0.00 0.00 0.00 97 1012.1
20260509070224 3 156 0.0 0.0 0.00 0.00 0.00 96 1012.1
20260509065720 2 154 0.0 0.0 0.00 0.00 0.00 96 1012.1
20260509065216 2 157 0.0 0.0 0.00 0.00 0.00 96 1012.4
20260509064713 2 155 0.0 0.0 0.00 0.00 0.00 96 1012.1
20260509064211 2 157 0.0 0.0 0.00 0.00 0.00 96 1012.1
20260509063708 2 158 0.0 0.0 0.00 0.00 0.00 95 1012.1
20260509063203 3 155 0.0 0.0 0.00 0.00 0.00 95 1012.1
20260509062701 3 155 0.0 0.0 0.00 0.00 0.00 96 1012.4
20260509062158 3 154 0.0 0.0 0.00 0.00 0.00 96 1012.1
20260509061655 3 153 0.0 0.0 0.00 0.00 0.00 96 1012.4
20260509061153 3 154 0.0 0.0 0.00 0.00 0.00 97 1012.7
20260509060650 3 152 0.0 0.0 0.00 0.00 0.00 97 1012.4
20260509060146 3 154 0.0 0.0 0.00 0.00 0.00 97 1012.7
20260509055641 3 152 0.0 0.0 0.00 0.00 0.00 97 1012.7
20260509055137 3 158 0.0 0.0 0.00 0.00 0.00 98 1012.7
20260509054634 3 157 0.0 0.0 0.00 0.00 0.00 99 1013.1
20260509054132 3 157 0.0 0.0 0.00 0.00 0.00 99 1012.7
20260509053630 3 157 0.0 0.0 0.00 0.00 0.00 99 1012.7
20260509053127 3 154 0.0 0.0 0.00 0.00 0.00 99 1012.7
20260509052625 2 155 0.0 0.0 0.00 0.00 0.00 99 1013.1
20260509052122 2 152 0.0 0.0 0.00 0.00 0.00 99 1013.1
20260509051620 2 154 0.0 0.0 0.00 0.00 0.00 99 1012.7
20260509051117 2 153 0.0 0.0 0.00 0.00 0.00 99 1013.1
20260509050614 3 155 0.0 0.0 0.00 0.00 0.00 99 1013.1
20260509050110 3 152 0.0 0.0 0.00 0.00 0.00 99 1013.1
20260509045608 3 151 0.0 0.0 0.00 0.00 0.00 99 1013.1
20260509045104 2 152 0.0 0.0 0.00 0.00 0.00 98 1013.1
20260509044602 3 152 0.0 0.0 0.00 0.00 0.00 98 1013.1
20260509044059 3 152 0.0 0.0 0.00 0.00 0.00 98 1013.1
20260509043555 2 152 0.0 0.0 0.00 0.00 0.00 98 1013.1
20260509043051 2 152 0.0 0.0 0.00 0.00 0.00 97 1013.5
20260509042548 2 152 0.0 0.0 0.00 0.00 0.00 97 1013.5
20260509042044 2 152 0.0 0.0 0.00 0.00 0.00 97 1013.5
20260509041540 2 152 0.0 0.0 0.00 0.00 0.00 97 1013.1
20260509041038 3 152 0.0 0.0 0.00 0.00 0.00 96 1013.1
20260509040536 3 152 0.0 0.0 0.00 0.00 0.00 96 1013.1
20260509040033 3 153 0.0 0.0 0.00 0.36 0.36 96 1013.1
20260509035530 3 153 0.0 0.0 0.00 0.36 0.36 95 1013.1
20260509035026 3 153 0.0 0.0 0.00 0.36 0.36 95 1013.5
20260509034525 3 152 0.0 0.0 0.00 0.36 0.36 95 1013.5
20260509034022 3 152 0.0 0.0 0.00 0.36 0.36 95 1013.1
20260509033518 3 155 0.0 0.0 0.00 0.36 0.36 94 1013.1
20260509033015 3 155 0.0 0.0 0.00 0.36 0.36 94 1013.1
20260509032512 3 155 0.0 0.0 0.00 0.36 0.36 94 1013.1
20260509032009 3 157 0.0 0.0 0.00 0.36 0.36 94 1013.1
20260509031507 3 152 0.0 0.0 0.00 0.36 0.36 93 1013.5
20260509031004 3 152 0.0 0.0 0.00 0.36 0.36 93 1013.5
20260509030502 3 152 0.0 0.0 0.00 0.36 0.36 92 1013.5
20260509025959 3 152 0.0 0.0 0.00 0.36 0.36 92 1013.5
20260509025454 3 153 0.0 0.0 0.00 0.36 0.36 91 1013.9
20260509024950 3 153 0.0 0.0 0.00 0.36 0.36 92 1013.1
20260509024446 3 153 0.0 0.0 0.00 0.36 0.36 90 1013.5
20260509023943 3 154 0.0 0.0 0.00 0.36 0.36 88 1013.5
20260509023441 4 154 0.0 0.0 0.00 0.36 0.36 88 1013.5
20260509022937 4 154 0.0 0.0 0.00 0.36 0.36 88 1013.5
20260509022434 4 152 0.0 0.0 0.00 0.36 0.36 87 1013.9
20260509021932 5 152 0.0 0.0 0.00 0.36 0.36 87 1013.5
20260509021428 5 152 0.0 0.0 0.00 0.36 0.36 86 1013.5
20260509020926 5 152 0.0 0.0 0.00 0.36 0.36 86 1013.5
20260509020424 5 152 0.0 0.0 0.00 0.36 0.36 86 1013.5
20260509015921 5 152 0.0 0.0 0.00 0.36 0.36 86 1013.5
20260509015420 5 152 0.0 0.0 0.00 0.36 0.36 84 1013.5
20260509014916 5 155 0.0 0.0 0.00 0.36 0.36 82 1013.5
20260509014413 5 155 0.0 0.0 0.00 0.36 0.36 81 1013.5
20260509013909 5 155 0.0 0.0 0.00 0.36 0.36 80 1013.1
20260509013406 5 155 0.0 0.0 0.00 0.36 0.36 79 1013.5
20260509012901 5 155 0.0 0.0 0.00 0.36 0.36 79 1013.1
20260509012358 6 155 0.0 0.0 0.00 0.36 0.36 78 1013.1
20260509011856 6 155 0.0 0.0 0.00 0.36 0.36 77 1013.1
20260509011353 6 149 0.0 0.0 0.00 0.36 0.36 76 1013.1
20260509010851 6 153 0.0 0.0 0.00 0.36 0.36 75 1013.1
20260509010348 6 151 0.0 0.0 0.00 0.36 0.36 74 1012.7
20260509005845 6 153 0.0 0.0 0.00 0.36 0.36 72 1012.7
20260509005343 7 153 0.0 0.0 0.00 0.36 0.36 70 1012.7
20260509004838 7 153 0.0 0.0 0.00 0.36 0.36 68 1012.7
20260509004334 8 151 0.0 0.0 0.00 0.36 0.36 68 1012.7
20260509003832 8 151 0.0 0.0 0.00 0.36 0.36 68 1012.7
20260509003330 8 140 0.0 0.0 0.00 0.36 0.36 67 1012.7
20260509002827 8 155 0.0 0.0 0.00 0.36 0.36 67 1012.7
20260509002324 8 156 0.0 0.0 0.00 0.36 0.36 66 1012.4
20260509001822 8 155 0.0 0.0 0.00 0.36 0.36 64 1012.4
20260509001317 9 152 0.0 0.0 0.00 0.36 0.36 64 1012.4
20260509000815 10 151 0.0 0.0 0.00 0.36 0.36 62 1012.4
20260509000313 10 152 0.0 0.0 0.00 0.36 0.36 61 1012.1
20260508235809 10 153 0.0 0.0 0.00 0.36 0.36 59 1012.1
20260508235307 10 154 0.0 0.0 0.00 0.36 0.36 57 1012.1
20260508234803 11 155 0.0 0.0 0.00 0.36 0.36 56 1012.1
20260508234259 11 151 0.0 0.0 0.00 0.36 0.36 54 1012.1
20260508233758 11 155 0.0 0.0 0.00 0.36 0.36 52 1012.1
20260508233257 11 155 0.0 1.6 0.00 0.36 0.36 50 1012.1
20260508232753 11 158 0.0 0.0 0.00 0.36 0.36 51 1012.1
20260508232250 12 162 0.0 0.0 0.00 0.36 0.36 49 1012.1
20260508231748 12 173 0.0 0.0 0.00 0.36 0.36 51 1012.1
20260508231244 12 161 0.0 0.0 0.00 0.36 0.36 49 1012.1
20260508230741 12 167 0.0 0.0 0.00 0.36 0.36 47 1012.1
20260508230237 12 91 1.6 1.6 0.00 0.36 0.36 47 1012.1
20260508225735 12 161 0.0 0.0 0.00 0.36 0.36 49 1012.1
20260508225231 12 157 0.0 0.0 0.00 0.36 0.36 47 1012.1
20260508224729 12 171 0.0 0.0 0.00 0.36 0.36 47 1012.1
20260508224227 12 159 0.0 0.0 0.00 0.36 0.36 46 1012.1
20260508223724 12 193 1.6 1.6 0.00 0.36 0.36 48 1012.4
20260508223221 12 160 0.0 0.0 0.00 0.36 0.36 46 1012.1
20260508222719 12 164 0.0 0.0 0.00 0.36 0.36 47 1012.4
20260508222216 12 150 0.0 0.0 0.00 0.36 0.36 46 1012.1
20260508221712 12 167 0.0 1.6 0.00 0.36 0.36 48 1012.1
20260508221208 12 117 3.2 3.2 0.00 0.36 0.36 47 1012.1
20260508220704 12 160 0.0 1.6 0.00 0.36 0.36 47 1012.4
20260508220201 12 141 1.6 1.6 0.00 0.36 0.36 45 1012.1
20260508215658 12 297 4.8 8.0 0.00 0.36 0.36 46 1012.4
20260508215154 13 22 4.8 4.8 0.00 0.36 0.36 49 1012.4
20260508214651 12 187 3.2 3.2 0.00 0.36 0.36 51 1012.4
20260508214149 13 164 0.0 0.0 0.00 0.36 0.36 56 1012.4
20260508213645 13 241 1.6 3.2 0.00 0.36 0.36 56 1012.4
20260508213141 13 191 0.0 0.0 0.00 0.36 0.36 51 1012.4
20260508212638 13 256 1.6 1.6 0.00 0.36 0.36 56 1012.4
20260508212135 12 167 3.2 4.8 0.00 0.36 0.36 55 1012.4
20260508211635 12 172 3.2 3.2 0.00 0.36 0.36 55 1012.4
20260508211131 12 163 1.6 3.2 0.00 0.36 0.36 57 1012.4
20260508210628 12 292 1.6 3.2 0.00 0.36 0.36 56 1012.4
20260508210126 12 157 1.6 1.6 0.00 0.36 0.36 55 1012.4
20260508205623 12 162 0.0 1.6 0.00 0.36 0.36 56 1012.7
20260508205119 12 134 0.0 0.0 0.00 0.36 0.36 55 1012.7
20260508204615 13 132 3.2 3.2 0.00 0.36 0.36 55 1013.1
20260508204112 13 251 3.2 3.2 0.00 0.36 0.36 58 1012.7
20260508203608 12 170 0.0 0.0 0.00 0.36 0.36 62 1012.4
20260508203104 12 144 1.6 1.6 0.00 0.36 0.36 58 1012.7
20260508202600 12 211 1.6 1.6 0.00 0.36 0.36 57 1012.7
20260508202058 13 343 4.8 4.8 0.00 0.36 0.36 56 1012.7
20260508201554 13 200 4.8 4.8 0.00 0.36 0.36 55 1012.4
20260508201051 13 164 0.0 0.0 0.00 0.36 0.36 59 1012.7
20260508200548 15 275 6.4 9.7 0.00 0.36 0.36 54 1012.7
20260508200043 14 180 1.6 3.2 0.00 0.36 0.36 54 1013.1
20260508195541 13 193 3.2 3.2 0.00 0.36 0.36 59 1013.1
20260508195037 11 174 0.0 0.0 0.00 0.36 0.36 60 1013.1
20260508194534 12 212 1.6 3.2 0.00 0.36 0.36 61 1013.1
20260508194031 12 201 4.8 4.8 0.00 0.36 0.36 61 1013.1
20260508193527 12 190 4.8 4.8 0.00 0.36 0.36 61 1013.5
20260508193024 12 187 1.6 3.2 0.00 0.36 0.36 60 1013.1
20260508192521 13 183 4.8 4.8 0.00 0.36 0.36 61 1013.1
20260508192018 13 160 1.6 1.6 0.00 0.36 0.36 59 1013.1
20260508191515 13 163 1.6 1.6 0.00 0.36 0.36 62 1013.1
20260508191011 13 198 4.8 4.8 0.00 0.36 0.36 62 1013.1
20260508190509 12 153 0.0 0.0 0.00 0.36 0.36 66 1013.5
20260508190005 13 172 0.0 1.6 0.00 0.36 0.36 64 1013.1
20260508185503 13 198 1.6 1.6 0.00 0.36 0.36 64 1013.1
20260508185000 12 337 4.8 4.8 0.00 0.36 0.36 65 1013.5
20260508184457 13 230 6.4 8.0 0.00 0.36 0.36 65 1013.5
20260508183954 12 114 4.8 8.0 0.00 0.36 0.36 63 1013.9
20260508183450 12 307 3.2 3.2 0.00 0.36 0.36 71 1013.5
20260508182945 11 228 3.2 3.2 0.00 0.36 0.36 67 1013.9
20260508182443 11 166 4.8 4.8 0.00 0.36 0.36 67 1013.9
20260508181944 11 129 4.8 8.0 0.00 0.36 0.36 71 1013.9
20260508181440 11 149 4.8 4.8 0.00 0.36 0.36 67 1013.9
20260508180938 11 229 3.2 3.2 0.00 0.36 0.36 71 1013.9
20260508180435 10 175 0.0 1.6 0.00 0.36 0.36 72 1013.9
20260508175931 11 146 1.6 3.2 0.00 0.36 0.36 74 1013.9
20260508175427 11 235 3.2 4.8 0.00 0.36 0.36 73 1013.9
20260508174926 11 232 6.4 9.7 0.00 0.36 0.36 68 1013.9
20260508174423 10 143 1.6 3.2 0.00 0.36 0.36 74 1013.9
20260508173919 10 121 1.6 1.6 0.00 0.36 0.36 75 1013.9
20260508173416 10 154 1.6 3.2 0.00 0.36 0.36 73 1013.9
20260508172912 10 173 3.2 4.8 0.00 0.36 0.36 75 1014.2
20260508172410 10 158 6.4 8.0 0.00 0.36 0.36 75 1013.9
20260508171906 10 185 6.4 8.0 0.00 0.36 0.36 73 1013.9
20260508171402 10 160 1.6 1.6 0.00 0.36 0.36 71 1013.9
20260508170859 10 181 4.8 8.0 0.00 0.36 0.36 74 1014.2
20260508170357 10 166 0.0 0.0 0.00 0.36 0.36 77 1013.9
20260508165853 10 179 1.6 3.2 0.00 0.36 0.36 78 1014.2
20260508165351 8 147 0.0 0.0 0.00 0.36 0.36 80 1014.2
20260508164846 8 144 1.6 3.2 0.00 0.36 0.36 80 1014.2
20260508164344 9 240 1.6 1.6 0.00 0.36 0.36 81 1014.2
20260508163841 9 166 4.8 8.0 0.00 0.36 0.36 82 1013.9
20260508163339 10 166 0.0 0.0 0.00 0.36 0.36 86 1014.5
20260508162834 10 190 0.0 0.0 0.00 0.36 0.36 90 1014.2